GEFSMW_500_meanwind_066.txt.gz
Wind_Speed
35 36 38 38 39 40 41 42 42 42 43 43 43 42 42 42 41 41 40 39 36 35 34 31 31 31 28 27 26 26 25 24 24 23 23 23 23 23 23 23 22 22 21
34 35 35 36 37 37 37 38 40 40 41 42 43 42 42 42 41 41 41 41 39 38 37 34 33 32 30 29 28 27 26 26 25 25 24 24 24 24 24 24 24 24 24
30 30 31 33 34 34 34 34 35 36 37 39 40 41 41 41 41 41 41 41 40 40 40 37 35 34 32 31 30 29 28 27 27 27 25 25 24 25 25 26 26 26 26
26 26 27 28 29 29 29 30 31 32 33 34 35 36 38 39 40 40 40 40 39 40 39 39 39 38 35 33 32 31 30 30 29 28 27 28 27 26 26 27 27 27 27
23 23 23 24 24 24 24 25 27 28 29 30 31 32 33 34 36 37 38 38 38 39 38 38 37 37 37 36 35 33 32 31 30 29 28 29 30 29 29 29 30 30 29
20 21 21 20 20 20 20 21 21 21 22 24 26 27 29 30 31 33 35 36 37 37 38 38 38 37 37 37 35 34 32 33 32 32 31 30 30 30 32 32 31 31 31
19 19 18 17 18 18 17 16 16 16 17 17 19 21 23 25 27 29 30 33 34 35 36 37 37 36 36 35 34 34 34 34 34 33 33 32 32 31 31 32 31 31 31
18 18 16 16 16 15 14 12 11 11 11 11 13 15 17 20 22 24 26 28 30 32 33 34 35 36 37 35 34 34 33 32 32 33 32 31 32 33 33 32 33 33 33
17 16 16 15 15 14 12 12 12 10 9 9 9 11 13 15 16 19 21 22 24 26 28 31 32 34 34 33 33 32 32 31 31 31 31 31 32 34 34 33 33 33 33
17 16 17 16 15 14 13 13 12 11 10 8 6 7 7 9 11 12 15 17 19 21 23 26 28 29 30 30 30 31 31 31 31 31 31 31 31 32 32 32 32 32 32
18 18 18 17 15 14 14 14 13 12 11 10 7 5 5 5 6 7 10 12 15 17 19 21 23 24 25 26 28 28 28 29 29 30 30 30 30 32 32 32 31 32 32
19 20 20 19 18 16 16 15 15 14 13 12 10 8 6 4 3 3 5 7 10 12 14 16 18 20 21 22 24 25 26 28 29 29 30 30 29 30 30 30 30 31 31
19 20 21 21 20 19 17 17 16 15 14 13 13 12 9 7 4 3 2 3 4 7 8 10 12 15 17 19 20 21 23 24 25 26 27 28 29 29 29 30 31 31 30
20 20 21 21 21 20 20 19 18 18 17 16 15 14 13 11 9 6 4 3 2 3 4 5 8 11 13 16 17 18 20 21 22 23 24 25 26 26 27 28 28 29 29
21 21 22 22 21 21 21 21 20 19 19 18 17 16 15 14 12 10 8 5 3 2 3 5 6 8 10 12 13 15 16 17 19 20 20 22 22 23 24 25 25 25 25
21 21 22 22 22 22 22 22 21 20 19 18 18 17 16 15 14 12 10 8 7 5 4 4 4 4 6 8 10 11 12 13 14 15 16 16 18 19 20 20 20 21 21
20 21 22 22 22 22 22 21 21 21 20 19 18 17 17 16 15 14 13 12 10 9 8 6 5 4 4 4 6 7 9 10 12 12 12 13 13 14 15 16 17 17 16
20 20 21 21 21 22 22 21 21 20 20 20 19 18 17 17 16 15 14 14 12 11 10 8 7 5 3 3 3 4 5 7 8 9 9 10 11 11 11 12 13 14 14
18 19 20 20 21 21 21 21 21 21 21 20 20 19 18 17 17 16 15 15 14 13 11 10 9 8 5 3 2 2 4 5 6 7 8 8 9 10 10 11 12 13 13
17 17 18 19 20 20 21 21 21 21 21 21 20 20 19 19 18 17 17 16 15 14 13 12 11 10 8 5 3 1 1 3 4 5 6 7 7 8 8 9 10 11 12
16 17 17 18 19 19 20 20 21 22 22 21 21 20 20 19 19 18 17 17 16 15 14 13 13 12 10 8 6 4 2 1 2 3 4 5 6 7 7 8 8 10 10
15 16 17 17 18 18 19 19 20 21 21 21 21 21 20 20 20 19 18 17 17 16 15 15 14 13 12 11 9 7 5 3 2 1 1 2 4 4 5 6 7 8 9
14 15 16 16 17 17 18 18 19 20 20 20 21 21 21 20 20 20 19 18 17 17 16 16 15 14 13 12 11 10 7 5 3 2 1 1 2 3 4 4 5 5 6
12 13 14 15 16 16 17 17 18 19 19 20 20 20 20 20 20 20 19 19 18 18 17 17 16 15 15 14 13 12 10 8 6 5 3 2 1 2 3 4 4 4 4
11 12 13 13 14 15 15 16 17 18 18 19 19 20 20 20 20 20 19 19 19 18 18 17 17 16 15 15 14 13 12 11 9 8 7 5 4 3 3 3 3 3 3
10 11 11 12 13 14 14 14 15 16 17 18 18 18 19 19 19 19 19 18 18 18 18 18 17 17 16 16 15 14 13 12 11 10 9 7 6 5 4 4 3 3 3

GEFSMW_500_meanwind_072.txt.gz
Wind_Speed
32 31 31 31 32 32 33 34 34 35 36 38 39 39 40 40 40 40 40 39 38 38 37 35 34 33 32 32 32 31 29 28 28 26 25 25 25 25 23 23 23 22 21
29 29 29 29 30 30 31 31 31 32 33 35 36 37 38 39 38 39 39 40 39 38 38 38 36 36 34 33 34 33 31 30 29 27 27 25 24 25 25 25 24 24 23
27 28 28 27 27 27 27 28 29 30 30 31 33 34 35 36 37 37 37 38 38 37 37 38 38 36 34 34 33 33 33 32 32 29 28 27 26 26 25 25 25 25 24
25 25 25 24 25 25 25 26 26 27 27 28 29 30 31 32 33 35 36 36 36 36 37 36 37 36 35 34 34 33 33 33 32 32 31 30 29 27 26 26 26 26 26
23 22 22 22 22 22 22 23 22 23 23 24 25 26 28 29 29 30 32 33 33 35 35 35 36 36 35 35 35 35 34 33 33 32 32 32 31 30 29 28 28 27 27
22 21 21 21 20 20 20 20 20 20 20 21 21 22 23 24 25 26 27 28 29 31 32 33 35 35 35 35 36 36 35 33 33 33 33 33 32 31 30 29 29 29 29
20 20 20 20 20 19 19 19 18 18 18 18 17 17 18 19 20 22 23 24 25 27 29 30 32 33 32 34 36 36 35 35 34 34 34 33 33 32 32 31 31 31 31
19 20 20 20 20 19 19 18 17 17 16 15 15 14 13 13 14 16 18 20 22 23 25 27 29 30 31 33 34 35 35 34 34 35 35 34 34 33 32 32 32 32 33
20 20 20 20 20 19 18 18 17 16 15 14 13 12 10 10 10 11 13 15 17 19 21 23 24 26 29 30 32 33 34 34 34 34 33 34 35 35 34 34 33 32 32
21 21 20 20 20 20 19 18 17 16 16 14 13 12 10 9 8 8 9 10 12 14 16 17 19 22 24 26 27 29 30 31 32 32 31 32 33 33 34 34 33 33 33
21 21 20 20 21 20 20 19 19 18 17 16 14 13 12 10 8 7 7 8 9 10 12 14 15 17 19 21 23 25 25 25 27 28 29 29 30 31 32 33 32 31 31
21 21 21 21 21 21 21 21 20 19 18 17 16 15 15 12 10 9 7 6 6 6 7 8 10 12 14 16 18 20 22 22 23 24 25 26 27 28 28 29 29 29 29
21 22 22 21 21 22 22 22 22 22 20 19 17 17 16 14 13 11 10 8 6 5 5 6 7 8 11 12 14 16 18 19 19 21 23 24 25 26 26 27 28 28 28
22 22 22 22 22 23 23 22 22 22 22 20 19 18 18 16 15 14 12 10 9 7 6 5 6 7 8 9 11 13 14 15 17 19 20 21 22 23 24 25 26 27 27
21 22 22 22 22 23 23 23 23 23 23 22 21 20 18 18 17 15 14 12 11 9 8 7 6 5 6 8 9 11 12 14 16 17 19 20 20 21 21 22 23 24 25
20 21 22 22 23 23 23 23 23 23 22 22 22 21 20 19 18 18 16 14 13 12 10 9 7 6 6 7 7 9 11 12 13 14 15 16 17 18 19 20 22 22 22
20 20 21 21 22 23 23 23 23 23 23 22 22 22 21 21 20 19 18 17 16 14 12 11 10 8 6 5 5 6 7 8 10 11 12 13 15 15 16 17 18 19 20
19 20 20 21 21 22 23 23 23 23 23 23 23 22 22 21 21 21 19 18 17 16 14 13 11 10 9 6 6 4 3 4 5 7 8 10 11 12 13 13 14 15 16
19 19 20 20 21 22 22 23 23 23 23 23 23 23 22 22 22 22 21 19 18 17 17 15 14 12 11 9 8 6 4 3 3 4 5 5 6 7 8 10 11 13 15
18 18 19 19 20 21 22 22 23 23 23 23 23 23 23 23 23 23 22 21 20 19 18 17 16 14 13 12 10 8 6 4 2 2 2 3 2 3 4 6 7 9 10
17 17 18 19 19 20 21 21 22 23 23 23 24 23 23 23 23 23 23 22 21 20 19 18 18 17 15 14 13 11 8 6 5 4 2 1 1 1 1 2 4 5 6
15 16 17 17 18 19 19 20 21 22 22 22 23 23 23 23 23 22 22 22 22 21 20 19 18 18 17 15 14 12 11 9 7 6 4 3 2 1 1 1 2 3 5
14 14 15 16 17 17 18 19 20 20 21 21 22 22 22 22 22 22 22 22 21 21 20 19 19 18 17 16 15 13 12 10 9 7 6 5 4 3 3 2 2 2 3
12 13 14 14 15 16 17 17 18 19 19 20 20 20 21 21 21 22 21 21 21 21 21 19 19 18 18 17 16 14 13 12 11 10 9 8 7 5 5 4 4 4 4
11 12 12 13 13 14 15 16 16 17 17 18 18 19 19 20 20 21 21 21 21 21 21 20 20 19 18 18 17 16 14 13 12 11 10 9 8 7 7 6 5 5 5
11 11 11 12 12 12 13 14 14 15 15 16 17 17 18 18 18 19 20 20 20 20 20 20 20 19 19 18 17 16 15 14 13 12 11 10 9 9 8 8 7 6 6

GEFSMW_500_meanwind_078.txt.gz
Wind_Speed
26 27 27 27 27 27 27 27 28 28 29 30 30 31 33 33 33 34 34 35 35 35 35 35 34 35 35 35 34 32 31 31 30 30 30 28 27 27 26 25 24 23 22
25 25 26 26 25 25 25 25 25 25 25 26 27 28 28 29 30 31 33 33 34 35 36 36 36 36 36 35 35 34 32 31 31 31 31 31 29 29 28 27 26 25 24
24 24 23 23 23 23 23 22 22 22 22 23 23 24 25 26 27 28 30 32 33 33 34 36 36 37 37 37 36 34 33 32 32 31 32 33 31 31 30 29 28 27 26
23 23 22 22 22 22 22 21 21 21 20 20 19 20 22 23 24 26 27 29 30 32 33 34 36 37 37 38 39 36 35 35 33 33 33 33 32 31 30 30 29 28 27
23 22 22 22 21 21 21 21 20 19 18 17 17 18 18 20 21 23 24 26 28 30 32 33 34 35 36 37 37 36 36 35 34 34 33 32 33 32 31 30 30 29 28
22 22 22 22 22 21 21 20 20 19 17 16 16 15 15 15 16 18 21 23 25 26 28 30 32 33 36 37 38 38 37 36 35 35 35 34 33 32 32 32 31 30 30
22 22 22 22 22 21 21 20 19 18 16 15 14 14 13 12 13 14 15 17 20 22 24 26 29 31 33 35 36 37 37 37 36 35 35 35 35 34 34 34 34 33 32
22 22 22 22 22 22 21 21 19 17 16 15 14 13 12 10 10 10 11 12 14 17 20 22 25 27 30 32 34 36 37 36 35 35 34 34 35 35 35 34 35 36 35
21 21 22 22 22 22 22 21 20 19 17 16 15 14 12 10 9 8 8 7 9 12 15 18 20 23 25 28 30 33 34 34 33 34 34 34 33 35 35 35 35 35 35
21 22 22 22 22 22 22 22 21 20 19 18 16 15 14 12 9 8 6 5 6 8 11 14 17 19 22 25 27 29 31 31 31 32 31 32 32 34 35 35 35 35 35
21 22 22 22 23 23 23 23 22 21 21 20 19 17 16 14 11 9 8 5 5 6 7 9 11 14 17 19 21 24 27 28 29 29 29 30 32 32 34 35 35 35 35
21 22 22 22 23 23 23 23 23 22 21 20 19 18 17 16 14 12 10 8 6 5 5 6 7 9 11 14 17 19 22 25 26 27 27 27 29 30 31 32 32 33 33
21 22 22 23 23 23 23 24 24 23 23 22 21 20 19 17 15 14 12 10 8 7 6 4 5 7 9 11 13 16 18 21 23 25 25 26 26 27 28 29 30 29 29
20 21 22 23 23 23 23 24 24 24 23 23 22 21 21 19 17 15 14 12 10 8 7 5 4 4 6 9 11 12 15 17 19 20 20 21 22 24 24 24 25 26 27
20 21 22 23 23 24 24 24 24 24 23 23 23 22 22 21 19 18 16 15 13 11 8 6 4 2 3 4 6 9 11 12 15 17 18 18 19 21 22 23 24 24 25
20 21 22 22 23 23 24 24 24 24 23 23 23 23 22 22 21 20 19 17 16 13 11 9 7 5 4 2 3 5 6 9 11 14 15 15 16 17 19 21 22 22 23
20 21 21 22 22 23 23 24 23 23 24 24 23 23 22 22 22 21 20 19 18 16 14 11 9 8 7 5 3 1 3 6 8 10 11 12 13 14 15 16 18 20 21
18 19 20 21 21 22 23 23 23 23 23 23 23 23 23 23 22 21 20 20 19 18 16 14 12 10 9 8 6 3 1 2 4 6 7 8 9 11 12 14 15 16 18
17 18 19 20 21 21 22 22 22 23 23 23 23 23 23 23 23 22 21 20 19 19 18 16 15 13 12 10 8 6 4 2 0 3 5 6 7 8 9 11 13 14 14
16 17 18 19 20 20 21 21 21 22 22 23 23 23 23 23 23 22 22 21 20 19 18 18 17 15 13 11 10 8 6 5 3 2 2 3 4 5 7 8 10 11 12
15 15 16 17 18 19 19 20 21 21 21 21 22 22 22 22 22 22 22 21 20 20 19 18 17 17 16 14 12 10 9 7 6 4 3 3 3 3 5 6 6 7 8
14 14 15 15 16 17 18 18 19 20 20 20 20 21 21 21 21 22 22 22 21 20 20 19 18 18 17 15 14 12 11 10 8 7 6 5 4 4 4 5 5 6 7
13 14 14 14 15 15 16 16 17 18 19 19 19 20 20 20 21 21 21 21 21 20 20 19 19 18 17 16 15 14 12 11 10 9 7 6 6 5 5 5 6 7 7
13 13 13 14 14 14 14 15 15 16 17 17 18 18 19 19 19 20 20 20 20 20 19 19 19 18 18 17 15 14 13 12 10 9 9 8 7 7 7 6 6 7 7
13 13 13 13 13 14 14 14 14 14 15 15 16 16 17 17 17 18 18 19 19 19 19 18 18 18 17 17 16 15 14 13 12 11 10 9 9 8 8 7 6 6 6
14 14 14 14 14 13 13 13 13 13 13 13 14 14 15 15 16 16 16 17 17 17 17 17 17 16 16 16 15 14 14 13 12 12 11 11 10 10 9 9 8 8 7

GEFSMW_500_meanwind_084.txt.gz
Wind_Speed
24 24 24 24 24 25 25 25 24 24 24 24 25 26 26 27 28 30 32 34 35 38 39 39 39 39 38 36 35 35 35 33 33 33 32 31 31 29 27 26 25 25 23
22 23 23 23 23 24 24 23 23 23 22 23 23 23 24 24 24 26 28 30 32 35 37 38 39 40 39 39 38 36 35 34 33 33 33 32 31 30 29 29 28 27 25
22 22 23 23 23 24 24 23 22 22 21 21 21 21 21 21 21 22 23 25 28 31 33 35 37 39 40 40 40 39 37 35 34 34 33 32 31 32 32 31 31 29 28
22 23 23 23 23 24 23 22 21 21 20 19 19 19 18 18 18 19 20 22 24 27 30 31 34 37 39 39 39 39 38 37 36 35 34 34 33 33 33 33 32 31 30
23 23 23 23 23 23 23 22 20 19 19 18 17 17 16 16 16 16 18 19 21 23 26 28 31 33 36 37 39 39 38 37 36 36 36 36 36 35 34 33 33 33 32
22 23 23 23 23 23 23 23 21 20 19 18 17 16 15 14 14 14 15 15 17 19 22 26 28 30 32 35 37 37 38 39 38 37 37 38 36 35 35 35 34 34 33
22 22 23 23 23 23 24 23 22 21 20 18 17 16 14 13 12 12 12 12 13 16 19 22 25 28 30 32 34 35 37 38 38 38 39 39 38 36 36 36 35 34 34
21 23 23 24 24 24 24 24 23 22 21 19 18 16 14 13 12 11 10 10 10 11 14 17 19 23 26 29 32 33 35 35 36 37 38 38 38 37 36 36 35 35 36
21 22 23 24 24 24 24 24 24 24 22 21 20 18 16 14 13 11 10 10 10 10 11 13 15 18 22 25 27 29 32 34 34 35 36 36 37 37 37 36 36 36 36
22 22 23 23 24 24 24 24 24 24 23 22 21 19 18 16 14 13 11 10 8 8 9 9 12 15 18 22 24 26 28 30 31 32 34 36 35 36 37 36 36 36 36
22 23 23 23 24 24 24 25 25 25 24 23 22 21 20 18 16 15 12 10 8 7 7 8 9 11 14 16 19 21 23 25 27 29 31 34 34 34 35 35 35 35 35
22 23 23 23 24 24 24 25 25 25 24 24 23 22 21 20 19 17 14 12 10 9 8 7 8 9 10 12 14 17 20 22 24 26 27 30 31 30 30 32 33 33 33
21 22 23 23 23 24 24 25 25 25 25 24 24 22 21 21 21 19 17 14 13 11 10 8 7 7 8 9 11 13 16 18 20 22 24 27 28 28 28 28 29 31 31
20 21 22 23 23 24 24 24 25 25 25 25 25 24 23 22 22 21 19 17 15 14 12 10 8 6 6 6 7 9 11 13 16 18 20 23 24 24 25 26 26 27 29
20 20 21 22 23 24 24 24 24 25 25 25 25 25 25 24 23 23 22 20 17 15 14 12 10 8 6 5 5 7 9 11 13 15 17 19 20 20 22 23 25 25 26
19 20 21 21 22 23 24 24 25 25 25 25 25 25 25 25 25 24 23 22 20 18 16 15 13 10 7 5 4 4 6 7 10 12 14 16 17 18 19 21 22 22 23
18 19 20 21 21 22 23 24 24 24 24 25 25 25 25 25 25 25 24 23 22 20 18 17 15 12 9 6 5 3 2 4 6 8 11 13 15 16 17 18 19 20 21
17 18 18 19 20 21 22 23 23 24 24 24 25 25 25 25 25 25 25 24 24 23 22 21 20 16 13 10 7 6 4 1 3 5 8 10 13 14 14 15 16 17 18
16 16 17 18 19 19 20 21 22 23 23 24 24 24 24 24 25 24 24 24 23 23 22 21 20 18 15 12 9 7 6 4 2 2 4 6 8 10 11 13 15 16 16
15 15 16 17 17 18 19 20 21 21 22 22 23 24 23 23 24 24 24 24 23 22 22 21 20 18 16 14 12 10 8 6 4 2 1 2 4 6 7 9 10 12 13
15 15 15 16 17 17 18 18 19 20 20 21 21 22 23 23 23 23 23 23 23 22 22 21 20 18 16 15 14 12 10 9 7 5 3 1 1 2 4 6 7 7 9
15 15 16 16 16 17 17 17 18 18 19 19 20 20 21 22 22 22 22 22 22 22 21 21 20 19 18 16 15 13 12 11 9 7 5 3 3 2 2 3 4 5 7
15 15 16 16 16 17 17 17 17 17 18 18 18 19 19 20 21 21 21 21 21 21 21 20 19 19 18 17 16 15 13 11 11 9 7 6 5 4 4 3 3 3 4
16 16 16 17 17 17 17 17 17 17 17 18 18 18 18 18 19 19 19 19 20 19 19 19 18 17 17 17 16 15 15 13 12 11 10 9 8 7 7 6 5 5 5
18 18 18 18 18 18 18 18 18 18 18 18 18 18 17 17 17 17 18 18 18 17 17 17 17 16 15 15 15 14 14 13 12 11 10 10 9 8 7 6 5 5 5
21 21 21 20 20 20 19 19 19 19 19 19 18 18 17 17 17 16 16 16 16 16 15 15 15 15 14 13 13 13 13 12 11 10 9 9 8 8 7 6 6 5 4

GEFSMW_500_meanwind_090.txt.gz
Wind_Speed
21 22 22 22 22 22 22 22 22 22 22 21 20 20 20 21 22 24 27 29 31 33 35 36 37 38 38 39 39 38 37 37 36 35 33 33 34 33 32 30 29 28 27
21 21 21 21 22 22 22 22 22 21 21 20 19 19 19 19 20 21 23 26 28 30 32 35 36 37 38 39 39 40 40 39 38 37 36 35 34 34 34 33 32 31 30
19 20 21 21 22 22 22 22 21 21 20 19 18 18 17 17 17 18 19 21 24 27 29 31 34 37 38 39 40 41 41 41 40 39 37 37 36 35 35 35 34 33 32
19 20 21 22 23 22 22 22 22 21 20 19 17 16 15 15 15 15 16 17 19 21 24 27 30 33 35 38 40 41 42 42 41 41 40 39 37 36 35 35 36 35 34
19 20 21 22 23 23 22 22 22 21 20 19 18 16 15 13 12 12 13 14 15 18 20 23 26 29 31 34 37 39 41 41 42 41 41 40 38 36 38 36 36 36 36
19 20 21 22 22 23 22 22 22 22 21 20 19 17 16 14 13 11 11 11 12 15 17 19 22 24 27 30 33 36 39 40 40 39 40 41 40 37 38 37 36 36 36
20 20 21 21 22 22 23 22 23 23 22 21 20 19 17 15 14 12 11 10 11 12 13 16 18 21 24 26 28 32 35 37 37 38 39 39 40 39 37 37 37 37 37
19 20 20 21 22 22 23 23 23 23 23 22 21 20 19 17 15 14 12 10 9 9 10 12 15 17 20 22 24 27 30 33 35 35 36 37 37 38 37 37 37 37 38
19 20 21 21 22 22 23 23 23 23 23 23 22 21 20 18 17 15 14 12 10 9 9 9 11 13 16 19 21 24 27 29 32 33 34 34 35 35 35 36 36 37 38
18 19 21 21 22 23 23 23 24 24 24 24 23 23 22 21 19 17 16 14 13 11 9 9 9 11 13 15 17 20 23 26 29 31 32 32 33 34 35 34 35 35 36
18 19 20 21 22 23 24 23 24 24 24 24 24 24 23 22 21 19 17 16 15 12 10 9 8 8 10 12 14 16 18 21 24 27 29 30 31 32 33 34 34 34 35
17 18 19 21 22 23 23 24 24 24 25 25 25 25 25 24 22 21 19 18 17 15 13 10 8 6 6 8 10 13 15 17 20 23 25 28 29 31 31 33 34 34 35
16 17 18 20 21 22 23 24 24 24 25 26 25 25 25 25 24 22 21 21 19 17 15 12 9 6 4 5 7 10 12 14 16 19 22 24 26 27 29 30 32 33 33
16 17 18 19 20 21 22 23 24 24 25 25 25 25 25 25 25 23 22 22 21 20 18 14 11 7 4 3 4 7 8 10 12 15 18 21 23 24 26 29 31 32 33
15 16 17 18 19 20 21 22 23 24 25 25 25 25 25 25 25 24 23 23 22 21 19 17 13 10 7 4 3 4 6 7 9 12 15 17 19 21 23 25 28 29 31
14 15 16 17 18 19 20 21 22 23 24 24 24 24 25 26 26 25 24 23 23 23 22 19 16 12 9 7 5 3 3 5 7 9 12 14 16 17 19 21 24 26 28
13 14 15 16 18 18 19 20 21 21 22 23 23 23 24 25 25 25 24 24 24 23 23 22 18 15 11 9 7 5 3 3 4 6 8 11 13 15 16 17 20 22 24
13 14 15 16 17 18 18 19 20 20 21 22 22 23 23 24 24 24 24 24 23 23 23 22 20 17 14 12 9 7 5 3 3 4 6 8 10 11 14 15 17 19 21
13 14 14 15 16 17 18 18 19 19 20 21 21 22 22 23 23 23 23 23 23 23 22 22 21 19 17 14 12 10 8 6 4 2 3 6 8 9 10 12 14 16 18
13 14 14 15 16 17 17 18 18 19 19 20 20 21 21 22 22 22 22 22 22 22 21 21 20 19 17 16 14 11 10 8 6 3 1 2 4 5 7 9 11 13 14
14 14 15 16 16 17 17 18 18 18 19 19 20 20 20 21 21 21 21 21 21 21 20 20 20 19 18 16 15 13 12 10 7 5 2 1 1 2 5 7 8 9 11
15 15 16 17 17 17 17 18 18 19 19 19 19 20 20 20 19 20 20 20 20 19 19 19 19 18 18 17 15 14 13 11 9 7 4 3 1 0 2 3 4 6 8
16 17 17 17 18 18 18 18 19 19 19 20 19 19 19 19 19 18 19 19 19 19 18 18 18 17 17 16 15 14 12 12 10 8 6 4 2 1 0 2 3 4 6
18 18 18 19 19 19 19 19 19 20 20 20 20 20 19 19 19 18 18 18 18 18 17 17 17 16 15 15 14 13 12 11 10 8 7 5 4 2 1 1 2 3 4
19 20 20 20 21 21 21 21 21 21 21 21 21 21 20 20 19 19 18 17 17 17 17 16 16 15 14 14 13 12 11 10 9 8 7 5 3 3 2 0 1 2 4
21 22 22 22 23 23 23 23 23 22 22 22 22 22 21 21 20 19 19 18 18 17 17 16 16 15 14 13 12 12 11 10 9 8 6 5 4 3 2 1 1 3 3